Regional Weather Roundup
Issued by NWS Mobile, AL

Home | Current Version | Previous Version | Text Only | Print | Product List | Glossary On
Versions: 1 2 3 4 5 6 7 8 9 10 11 12 13 14 15 16 17 18 19 20 21 22 23 24 25 26 27 28
000
ASUS44 KMOB 291812
RWRMOB
REGIONAL WEATHER ROUNDUP
NATIONAL WEATHER SERVICE MOBILE AL
100 PM CDT SAT APR 29 2017

NOTE: "FAIR" INDICATES FEW OR NO CLOUDS BELOW 12,000 FEET WITH NO
      SIGNIFICANT WEATHER AND/OR OBSTRUCTIONS TO VISIBILITY.

  * THESE STATIONS ARE PART OF THE UNIVERSITY OF SOUTH ALABAMA
    MESONET AND ARE NOT UNDER NWS OR FAA QUALITY CONTROL.

ALZ061>064-291900-
COASTAL ALABAMA

CITY           SKY/WX    TMP DP  RH WIND       PRES   REMARKS
MOBILE REG APT CLOUDY    83  71  67 S18G24    30.03S
6HR MIN TEMP:  76; 6HR MAX TEMP:  84;

BROOKLEY FIELD CLOUDY    83  75  77 SE21      30.03S
6HR MIN TEMP:  77; 6HR MAX TEMP:  83;

USA CAMPUS*      N/A     81  72  74 CALM      30.02F
DOG RIVER*       N/A     81  73  78 SE13      30.78F


CITY           SKY/WX    TMP DP  RH WIND       PRES   REMARKS
GULF SHORES    CLOUDY    81  76  83 SE18G32   30.03S

$$

ALZ051>060-291900-
INTERIOR SOUTHWEST AND SOUTH CENTRAL ALABAMA

CITY           SKY/WX    TMP DP  RH WIND       PRES   REMARKS
GREENVILLE     CLOUDY    85  68  56 SE9       30.05F
6HR MIN TEMP:  73; 6HR MAX TEMP:  85;

EVERGREEN      CLOUDY    86  68  54 S17       30.06S
6HR MIN TEMP:  73; 6HR MAX TEMP:  86; 6HR PCP: TRACE;

ATMORE*          N/A     81  70  69 S17       30.06F
ANDALUSIA/OPP  CLOUDY    87  66  49 SE15G23   30.06F
6HR MIN TEMP:  75; 6HR MAX TEMP:  89;

ANDALUSIA*       N/A     84  70  61 S8        30.08R
FLORALA APT    LGT RAIN  84  66  54 S17G25    30.08F
6HR MIN TEMP:  73; 6HR MAX TEMP:  85; 6HR PCP: TRACE;

FLORALA*         N/A     84  68  58 E6        30.79S

$$

FLZ001>006-291900-
WESTERN FLORIDA PANHANDLE

CITY           SKY/WX    TMP DP  RH WIND       PRES   REMARKS
PENSACOLA      CLOUDY    80  72  76 SE17G26   30.05F
6HR MIN TEMP:  76; 6HR MAX TEMP:  82;

NAS PENSACOLA  CLOUDY    80  73  79 SE18      30.04S
6HR MIN TEMP:  76; 6HR MAX TEMP:  83;

MILTON         LGT RAIN  81  72  74 SE17G28   30.06S
6HR MIN TEMP:  73; 6HR MAX TEMP:  81; 6HR PCP: TRACE;

WHTNG S FIELD  CLOUDY    84  73  69 S15G25    30.06S
6HR MIN TEMP:  77; 6HR MAX TEMP:  85;



CITY           SKY/WX    TMP DP  RH WIND       PRES   REMARKS
JAY*             N/A     82  66  57 SE16      30.06S
DUKE FIELD     CLOUDY    82  70  66 SE15G23   30.06S
CRESTVIEW      CLOUDY    84  70  62 SE10G24   30.08F
6HR MIN TEMP:  73; 6HR MAX TEMP:  84;

VALPARAISO     PTSUNNY   81  72  75 SE22      30.06F
6HR MIN TEMP:  75; 6HR MAX TEMP:  82;

DESTIN         CLOUDY    81  78  91 SE16      30.06F
6HR MIN TEMP:  77; 6HR MAX TEMP:  83;


$$

MSZ076-079-291900-
INTERIOR SOUTHEAST MISSISSIPPI

CITY           SKY/WX    TMP DP  RH WIND       PRES   REMARKS
LEAKESVILLE*   NOT AVBL
AGRICOLA*        N/A     84  72  65 SE5       30.00S

$$

MARINE OBSERVATIONS

STATION/POSITION TIME  TEMP    WIND        PRES    WAVE
                       AIR SEA DIR/SP/G            HT/PER
                 (UTC) (F)     (DEG/KT/KT) (MB)    (FT/S)
PASCAGOULA       1742   78     130/ 16/ 20 1015.7F
PETIT BOIS ISLND 1742   78     130/ 16/ 20 1016.4F
GRAND BAY        1645   77     140/ 17     1017.0S
KATRINA CUT      1730   77     140/ 18     1015.9S
CEDAR POINT      1730   77     140/ 17     1016.6F
E DAUPHIN ISLAND 1700   76     130/ 18/ 21 1016.1F
MIDDLE BAY LIGHT 1730   77     130/ 25     1016.3R
USCG MOBILE BAY  1742   79 77  170/ 14/ 19 1017.4S
STATE DOCKS      1742   80 77              1016.8F
MEAHER PARK      1730   80     140/ 15     1016.6S
FORT MORGAN      1742   77     140/ 21/ 25   N/A
12 S ORANGE BCH  1750   76 75  120/ 17/ 19 1016.1F   5/ 6
PENSACOLA BAY    1742   80 76  140/  5/  9 1017.7F
64 S DAUPHIN ISL 1750   77 76  130/ 16/ 19 1015.4S   6/ 6
67 S FORT MORGAN 1730   76     140/ 19     1015.2F

$$

SELECTED LOCATIONS ACROSS THE REGION

CITY           SKY/WX    TMP DP  RH WIND       PRES   REMARKS
NEW ORLEANS    CLOUDY    82  74  76 SE20G31   29.92S
GULFPORT       CLOUDY    82  74  76 SE23G31   29.98S
PASCAGOULA AP  CLOUDY    81  72  74 SE20G29   30.00F
PASCAGOULA*    NOT AVBL
HATTIESBURG    MOSUNNY   86  69  56 S21G33    29.96F
LAUREL         CLOUDY    84  70  61 SE15      29.97F
MERIDIAN       CLOUDY    86  71  60 SE15      29.97F
JACKSON        PTSUNNY   88  71  57 S21G36    29.91F
MONTGOMERY     CLOUDY    87  69  54 SE10G22   30.06F
TROY           CLOUDY    84  68  58 S15G30    30.08F
ASHFORD*         N/A     84  70  61 S8        30.08R
DOTHAN         CLOUDY    86  67  52 SE15G23   30.12F
PANAMA CITY    CLOUDY    84  70  62 SE20G29   30.08F

$$





USA.gov is the U.S. government's official web portal to all federal, state and local government web resources and services.